TimeCST,TemperatureF,Dew PointF,Humidity,Sea Level PressureIn,VisibilityMPH,Wind Direction,Wind SpeedMPH,Gust SpeedMPH,PrecipitationIn,Events,Conditions,WindDirDegrees,DateUTC
12:53 AM,-9.0,-15.0,75,30.20,10.0,SW,3.5,-,N/A,,Overcast,230,2014-01-07 06:53:00
1:53 AM,-8.0,-14.1,75,30.19,10.0,WSW,5.8,-,N/A,,Overcast,250,2014-01-07 07:53:00
2:53 AM,-7.1,-14.1,72,30.19,10.0,SW,5.8,-,N/A,,Overcast,220,2014-01-07 08:53:00
3:53 AM,-6.0,-13.0,72,30.17,10.0,SW,4.6,-,N/A,,Overcast,230,2014-01-07 09:53:00
4:53 AM,-6.0,-11.9,75,30.17,10.0,SSW,8.1,-,N/A,,Overcast,200,2014-01-07 10:53:00
5:53 AM,-5.1,-11.0,76,30.16,10.0,SSW,8.1,-,N/A,,Overcast,210,2014-01-07 11:53:00
6:53 AM,-4.0,-9.0,79,30.17,8.0,South,3.5,-,0.00,Snow,Light Snow,190,2014-01-07 12:53:00
7:53 AM,-4.0,-8.0,83,30.17,9.0,Calm,Calm,-,0.00,,Overcast,0,2014-01-07 13:53:00
8:53 AM,-2.9,-7.1,82,30.19,10.0,Calm,Calm,-,N/A,,Overcast,0,2014-01-07 14:53:00
9:53 AM,-0.9,-6.0,79,30.19,10.0,Calm,Calm,-,N/A,,Overcast,0,2014-01-07 15:53:00
10:53 AM,-0.0,-5.1,79,30.20,10.0,West,4.6,-,N/A,,Partly Cloudy,280,2014-01-07 16:53:00
11:53 AM,1.9,-5.1,72,30.19,10.0,NW,6.9,-,N/A,,Clear,320,2014-01-07 17:53:00
12:53 PM,1.9,-4.0,76,30.21,10.0,WNW,8.1,-,N/A,,Clear,300,2014-01-07 18:53:00
1:53 PM,3.0,-4.0,73,30.20,10.0,NW,6.9,-,N/A,,Clear,320,2014-01-07 19:53:00
2:53 PM,3.0,-4.0,73,30.21,10.0,NW,6.9,-,N/A,,Clear,310,2014-01-07 20:53:00
3:53 PM,1.9,-5.1,72,30.24,10.0,NW,5.8,-,N/A,,Clear,320,2014-01-07 21:53:00
4:53 PM,1.0,-7.1,69,30.25,10.0,NW,4.6,-,N/A,,Clear,310,2014-01-07 22:53:00
5:53 PM,-4.0,-8.0,83,30.29,10.0,West,4.6,-,N/A,,Clear,270,2014-01-07 23:53:00
6:53 PM,-2.9,-8.0,79,30.30,10.0,WNW,4.6,-,N/A,,Clear,290,2014-01-08 00:53:00
7:53 PM,-6.0,-9.0,87,30.30,10.0,WNW,4.6,-,N/A,,Clear,290,2014-01-08 01:53:00
8:53 PM,-11.0,-14.1,86,30.32,10.0,NNW,6.9,-,N/A,,Clear,340,2014-01-08 02:53:00
9:53 PM,-8.0,-11.0,86,30.32,10.0,Calm,Calm,-,N/A,,Clear,0,2014-01-08 03:53:00
10:53 PM,-7.1,-11.0,83,30.33,10.0,Calm,Calm,-,N/A,,Overcast,0,2014-01-08 04:53:00
11:53 PM,-5.1,-9.9,80,30.33,10.0,Calm,Calm,-,N/A,,Overcast,0,2014-01-08 05:53:00